Regional Weather Roundup
Issued by NWS

Home | Current Version | Previous Version | Text Only | Print | Product List | Glossary Off
Versions: 1 2 3 4 5 6 7 8 9 10 11 12 13 14 15 16 17 18 19 20 21 22 23 24 25 26 27 28 29 30 31 32 33 34 35 36 37 38 39 40 41 42 43 44 45 46 47 48 49 50

184
ASUS45 KABQ 201210
RWRNM
NEW MEXICO REGIONAL WEATHER ROUNDUP
NATIONAL WEATHER SERVICE ALBUQUERQUE NM
500 AM MST TUE FEB 20 2018

NOTE: "FAIR" MEANS FEW OR NO CLOUDS BELOW 12,000 FEET AGL WITH NO
       SIGNIFICANT WEATHER OR OBSTRUCTIONS TO VISION.

      THIS PRODUCT IS RELEASED AS TWO VERSIONS.  ONE VERSION NEAR
      THE TOP OF THE HOUR CONTAINING PRELIMINARY DATA FROM ALBUQUERQUE
      AND OTHER STATIONS.  A FINAL VERSION WITH ADDITIONAL DATA IS
      ISSUED ABOUT 10 MINUTES AFTER THE HOUR.

NMZ501-503-504-510>518-201300-
NORTHWEST PLATEAU/NORTHCENTRAL MOUNTAINS

CITY           SKY/WX    TMP DP  RH WIND       PRES   REMARKS
FARMINGTON     MOCLDY    17  11  77 SW5       29.86R WCI  10
6HR MIN TEMP:  15; 6HR MAX TEMP:  27;

LOS ALAMOS     CLOUDY    25  12  57 E8        29.82S WCI  17
SANTA FE       CLOUDY    26  24  92 CALM      29.85R
6HR MIN TEMP:  26; 6HR MAX TEMP:  39; 6HR PCP: TRACE;

TAOS           CLOUDY    22  11  62 W10       29.85R WCI  11
ANGEL FIRE     LGT SNOW  16   8  72 SW6G23    29.76R WCI   7

$$
NMZ402-403-502-505>509-201300-
WESTCENTRAL MOUNTAINS/SOUTHWEST MOUNTAINS

CITY           SKY/WX    TMP DP  RH WIND       PRES   REMARKS
GALLUP         CLOUDY    20  13  74 SW7       29.87S WCI  11
6HR MIN TEMP:  20; 6HR MAX TEMP:  22; 6HR PCP:  0.01;

GRANTS         CLOUDY    21  14  73 N9        29.89R WCI  11
SILVER CITY    CLOUDY    37  32  83 NW12      29.89R WCI  29

$$
NMZ407-409-411-412-201300-
SOUTHERN DESERTS

CITY           SKY/WX    TMP DP  RH WIND       PRES   REMARKS
DEMING         MOCLDY    42  35  76 NW6       29.88R
6HR MIN TEMP:  42; 6HR MAX TEMP:  52;

LAS CRUCES     FAIR      44  34  67 SW7       29.89R
ALAMOGORDO     MOCLDY    50  28  43 W13       29.90R
T OR C         MOCLDY    46  33  60 S16       29.82R
6HR MIN TEMP:  45; 6HR MAX TEMP:  51;


$$
NMZ519>523-201300-
CENTRAL VALLEYS/CENTRAL HIGHLANDS

CITY           SKY/WX    TMP DP  RH WIND       PRES   REMARKS
ALBUQUERQUE    FLURRIES  29  18  63 N12       29.92R WCI  19
6HR MIN TEMP:  29; 6HR MAX TEMP:  45; 6HR PCP:  0.01;

MORIARTY ARPT  CLOUDY    28  21  75 NW17      29.83R WCI  15
6HR MIN TEMP:  27; 6HR MAX TEMP:  44;

CLINES CORNERS FAIR      20  14  77 NW22G33   29.77  WCI   3
6HR MIN TEMP:  20; 6HR MAX TEMP:  41; 6HR PCP: TRACE;

BELEN          CLOUDY    32  17  54 NW9       29.93R WCI  24
6HR MIN TEMP:  31; 6HR MAX TEMP:  50;

SOCORRO        CLOUDY    35  21  57 N17G25    29.89R WCI  24
6HR MIN TEMP:  35; 6HR MAX TEMP:  51;


$$
NMZ524>526-539-540-201300-
SOUTHCENTRAL MOUNTAINS

CITY           SKY/WX    TMP DP  RH WIND       PRES   REMARKS
RUIDOSO        NOT AVBL

$$
NMZ527>531-201300-
NORTHEAST HIGHLANDS/NORTHEAST PLAINS

CITY           SKY/WX    TMP DP  RH WIND       PRES   REMARKS
LAS VEGAS      FAIR      32  17  54 SW22G30   29.71R WCI  19
6HR MIN TEMP:  31; 6HR MAX TEMP:  41; 6HR PCP: TRACE;

RATON          FAIR      31  10  41 W16G26    29.71R WCI  20
6HR MIN TEMP:  30; 6HR MAX TEMP:  45; 6HR PCP: TRACE;

CLAYTON        CLOUDY    17  15  92 N16       29.77R WCI   2
6HR MIN TEMP:  16; 6HR MAX TEMP:  53; 6HR PCP: TRACE;


$$
NMZ532>537-201300-
EASTCENTRAL PLAINS

CITY           SKY/WX    TMP DP  RH WIND       PRES   REMARKS
SANTA ROSA     CLOUDY    40  25  54 W16       29.78R WCI  32
TUCUMCARI      FAIR      43  29  57 NW9       29.73R
6HR MIN TEMP:  43; 6HR MAX TEMP:  55;

CANNON AFB     FAIR      44  37  76 SW10      29.78R
6HR MIN TEMP:  41; 6HR MAX TEMP:  55;

CLOVIS AIRPORT NOT AVBL

$$
NMZ028-029-538-201300-
SOUTHEAST PLAINS

CITY           SKY/WX    TMP DP  RH WIND       PRES   REMARKS
ROSWELL        FAIR      53  31  42 S13       29.78R
6HR MIN TEMP:  52; 6HR MAX TEMP:  62;

ARTESIA        FAIR      55  32  41 SW16G23   29.80S
CARLSBAD       FAIR      55  36  48 W13       29.77R
6HR MIN TEMP:  49; 6HR MAX TEMP:  61;

HOBBS          FAIR      43  36  75 SW8       29.80R


$$




USA.gov is the U.S. government's official web portal to all federal, state and local government web resources and services.